LiveATC.Net - Listen to live air traffic control over the Internet!


ICAO: KOGD  IATA: OGD   Airport: Ogden-Hinckley Airport
City: Ogden   State/Province: Utah
Country: United States   Continent: North America
KOGD METAR Weather: KOGD 152253Z 25008KT 10SM CLR 33/02 A2998 RMK AO2 SLP083 T03330022
KOGD Flight Activity (FlightAware)
KOGD Airport Info   (iFlightPlanner)
KOGD VFR Sectional Chart   (iFlightPlanner) 
KOGD IFR Low Chart   (iFlightPlanner) 

KOGD Ogden Ground/Tower
Feed Status: UP   Listeners: 1
Listen in your browser - HTML5 player (in browser, HTML5)
Click here to listen with your own player (launches your MP3 player)
KOGD Ogden Ground/Tower Audio Archives
FacilityFrequency
Ogden Ground121.700
Ogden Tower118.700

NOTICE

Unauthorized use prohibited. See LiveATC.net Terms of Service


Find LiveATC Audio Streams


Airport/ARTCC Code

Frequency Search
(e.g., 124.400, 128.75)
Site-wide search
 


Browse LiveATC Feeds
Top 50 LiveATC Feeds
LiveATC Feed Map
Bad Weather Areas

LiveATC FAQ
Offer LiveATC feed
Contact LiveATC.net
Press Inquiries

LiveATC on iPhone
LiveATC on Android

Windows Phone
Windows 8/10

LiveATC Mobile
(Mobile browser)

ATC Audio Archives
Interesting Recordings

LiveATC Forums


Home Page
About LiveATC.net
Make a Donation
Terms of Use
Privacy Policy

Canadian Air Freqs

AIRMETs/SIGMETs

FAA Airport Status
Nat'l Airspace Status
Arrival Demand Charts


Server Software By:
Icecast.org
Liquidsoap